This demonstration page uses our WeatherBlox Daily Observations layout. Learn more.

Left ArrowRight Arrow

Hourly Observations for July 9, 2017

Temp ( °F °C ) Dew Point ( °F °C ) Humidity (%) Winds ( mph kmh ) Pressure ( in mb ) Visibility ( mi km ) Precip ( " mm )
12:15 am 00:15 Clear 76 24.5 63 17.3 64 64 ESE 9 15 29.91 1013 10 16 0.00 0.00
12:35 am 00:35 Clear 75 24.1 64 17.5 67 67 ESE 9 15 29.91 1013 10 16 0.00 0.00
12:55 am 00:55 Clear 74 23.5 64 17.6 70 70 ESE 8 13 29.94 1014 10 16 0.00 0.00
1:15 am 01:15 Clear 74 23.4 64 17.7 70 70 ESE 7 11 29.94 1014 10 16 0.00 0.00
1:35 am 01:35 Clear 74 23.3 64 17.6 70 70 SE 9 15 29.94 1014 10 16 0.00 0.00
1:55 am 01:55 Clear 74 23.2 64 17.7 71 71 SE 9 15 29.94 1014 10 16 0.00 0.00
2:15 am 02:15 Clear 73 22.7 64 17.5 73 73 SE 8 13 29.94 1014 10 16 0.00 0.00
2:35 am 02:35 Clear 73 22.6 64 17.5 73 73 SE 9 15 29.94 1014 10 16 0.00 0.00
2:55 am 02:55 Clear 71 21.9 64 17.5 76 76 SE 9 15 29.94 1014 10 16 0.00 0.00
3:15 am 03:15 Clear 70 21.2 63 17.3 79 79 SSE 9 15 29.94 1014 10 16 0.00 0.00
3:35 am 03:35 Clear 70 21 63 17.2 79 79 SSE 8 13 29.94 1014 10 16 0.00 0.00
3:55 am 03:55 Clear 68 20 62 16.8 82 82 SSE 6 9 29.97 1015 10 16 0.00 0.00
4:15 am 04:15 Clear 68 20.2 62 16.9 81 81 SSE 7 11 29.91 1013 10 16 0.00 0.00
4:35 am 04:35 Clear 68 19.8 62 16.5 81 81 Calm 29.97 1015 10 16 0.00 0.00
4:55 am 04:55 Clear 64 17.6 59 15.2 86 86 NW 6 9 29.97 1015 10 16 0.00 0.00
5:15 am 05:15 Clear 63 17.1 60 15.7 92 92 NNW 3 6 29.94 1014 10 16 0.00 0.00
5:35 am 05:35 Clear 62 16.6 59 15.2 92 92 Calm 30.00 1016 10 16 0.00 0.00
5:55 am 05:55 Clear 61 16.3 59 14.9 91 91 Calm 29.97 1015 10 16 0.00 0.00
6:15 am 06:15 Clear 61 15.9 59 14.8 93 93 Calm 29.97 1015 7 11 0.00 0.00
6:40 am 06:40 Sunny with Mist and Fog 60 15.7 58 14.6 93 93 Calm 29.97 1015 4 6 0.00 0.00
6:55 am 06:55 Sunny with Mist and Fog 60 15.6 58 14.5 93 93 Calm 29.97 1015 5 8 0.00 0.00
7:15 am 07:15 Sunny 62 16.6 60 15.5 93 93 Calm 29.94 1014 7 11 0.00 0.00
7:35 am 07:35 Sunny 65 18.4 62 16.8 90 90 Calm 29.94 1014 7 11 0.00 0.00
7:55 am 07:55 Sunny 66 18.9 63 17 89 89 W 5 7 29.94 1014 10 16 0.00 0.00
8:15 am 08:15 Sunny 67 19.6 63 17.3 87 87 Calm 29.94 1014 10 16 0.00 0.00
8:35 am 08:35 Sunny 69 20.5 64 17.6 84 84 Calm 29.94 1014 10 16 0.00 0.00
8:55 am 08:55 Sunny 71 21.7 64 18 80 80 WSW 5 7 29.94 1014 10 16 0.00 0.00
9:15 am 09:15 Sunny 73 22.7 65 18.5 77 77 WSW 3 6 29.94 1014 10 16 0.00 0.00
9:35 am 09:35 Sunny 74 23.5 65 18.5 74 74 Calm 29.94 1014 10 16 0.00 0.00
9:55 am 09:55 Sunny 76 24.6 66 18.7 70 70 SW 3 6 29.91 1013 10 16 0.00 0.00
10:15 am 10:15 Sunny 78 25.8 65 18.6 65 65 Calm 29.88 1012 10 16 0.00 0.00
10:35 am 10:35 Sunny 81 27.1 66 19 61 61 Calm 29.85 1011 10 16 0.00 0.00
10:55 am 10:55 Sunny 83 28.3 67 19.2 58 58 W 3 6 29.85 1011 10 16 0.00 0.00
11:15 am 11:15 Sunny 85 29.5 65 18.6 52 52 SW 3 6 29.85 1011 10 16 0.00 0.00
11:35 am 11:35 Sunny 86 30.2 64 17.8 47 47 Calm 29.85 1011 10 16 0.00 0.00
11:55 am 11:55 Sunny 88 31.1 65 18.1 46 46 Calm 29.80 1009 10 16 0.00 0.00
12:15 pm 12:15 Sunny 90 32.4 59 14.9 35 35 SSE 3 6 29.80 1009 10 16 0.00 0.00
12:35 pm 12:35 Sunny 92 33.2 58 14.4 32 32 SW 3 6 29.80 1009 10 16 0.00 0.00
12:55 pm 12:55 Sunny 92 33.4 61 15.9 35 35 S 7 11 29.80 1009 10 16 0.00 0.00
1:15 pm 13:15 Sunny 94 34.3 58 14.3 30 30 SW 3 6 29.77 1008 10 16 0.00 0.00
1:35 pm 13:35 Sunny 95 35 57 13.9 28 28 SSW 7 11 29.74 1007 10 16 0.00 0.00
1:55 pm 13:55 Sunny 96 35.8 58 14.2 27 27 SSW 8 13 29.74 1007 10 16 0.00 0.00
2:15 pm 14:15 Sunny 97 35.9 62 16.6 32 32 S 8 13 29.74 1007 10 16 0.00 0.00
2:35 pm 14:35 Sunny 97 36.1 60 15.7 30 30 SSE 8 13 29.74 1007 10 16 0.00 0.00
2:55 pm 14:55 Sunny 98 36.5 56 13.3 25 25 SSW 6 9 29.71 1006 10 16 0.00 0.00
3:15 pm 15:15 Sunny 99 37 55 13 24 24 S 3 6 29.71 1006 10 16 0.00 0.00
3:35 pm 15:35 Sunny 99 37.2 54 12.3 22 22 Calm 29.68 1005 10 16 0.00 0.00
3:55 pm 15:55 Sunny 99 37.1 53 11.7 22 22 S 3 6 29.71 1006 10 16 0.00 0.00
4:15 pm 16:15 Sunny 100 37.7 55 12.5 22 22 SSW 6 9 29.68 1005 10 16 0.00 0.00
4:35 pm 16:35 Sunny 100 37.9 56 13.6 23 23 SSW 8 13 29.68 1005 10 16 0.00 0.00
4:55 pm 16:55 Sunny 100 37.8 56 13.1 23 23 S 8 13 29.65 1004 10 16 0.00 0.00
5:15 pm 17:15 Sunny 100 37.7 55 12.8 22 22 S 8 13 29.65 1004 10 16 0.00 0.00
5:35 pm 17:35 Sunny 100 37.7 55 13 23 23 S 10 17 29.65 1004 10 16 0.00 0.00
5:55 pm 17:55 Sunny 100 37.6 56 13.2 23 23 S 8 13 29.62 1003 10 16 0.00 0.00
6:15 pm 18:15 Sunny 99 37.1 57 13.7 25 25 S 9 15 29.62 1003 10 16 0.00 0.00
6:35 pm 18:35 Sunny 98 36.5 58 14.2 26 26 S 8 13 29.65 1004 10 16 0.00 0.00
6:55 pm 18:55 Sunny 96 35.7 58 14.5 28 28 S 8 13 29.65 1004 10 16 0.00 0.00
7:15 pm 19:15 Sunny 96 35.3 60 15.3 30 30 S 7 11 29.62 1003 10 16 0.00 0.00
7:35 pm 19:35 Sunny 94 34.5 60 15.6 32 32 S 8 13 29.62 1003 10 16 0.00 0.00
7:55 pm 19:55 Sunny 91 32.6 62 16.8 39 39 S 6 9 29.62 1003 10 16 0.00 0.00
8:15 pm 20:15 Sunny 88 31.2 63 17.3 43 43 S 7 11 29.65 1004 10 16 0.00 0.00
8:35 pm 20:35 Sunny 87 30.5 65 18.3 48 48 S 7 11 29.65 1004 10 16 0.00 0.00
8:55 pm 20:55 Sunny 86 29.8 65 18.4 50 50 S 7 11 29.65 1004 10 16 0.00 0.00
9:15 pm 21:15 Clear 84 29.1 64 17.9 51 51 S 8 13 29.68 1005 10 16 0.00 0.00
9:35 pm 21:35 Clear 82 28 64 17.6 53 53 S 6 9 29.71 1006 10 16 0.00 0.00
9:55 pm 21:55 Clear 81 27.3 63 17.3 54 54 S 6 9 29.71 1006 10 16 0.00 0.00
10:15 pm 22:15 Clear 79 26 63 17.4 59 59 S 6 9 29.71 1006 10 16 0.00 0.00
10:35 pm 22:35 Clear 81 27.2 62 16.9 53 53 SSW 9 15 29.74 1007 10 16 0.00 0.00
10:55 pm 22:55 Clear 81 27.2 62 16.5 52 52 SSW 9 15 29.74 1007 10 16 0.00 0.00
11:15 pm 23:15 Clear 82 27.6 60 15.7 48 48 SSW 10 17 29.71 1006 10 16 0.00 0.00
11:35 pm 23:35 Clear 82 27.6 60 15.4 47 47 S 14 22 29.71 1006 10 16 0.00 0.00
11:55 pm 23:55 Clear 83 28.1 59 15 45 45 WSW 7 11 29.74 1007 10 16 0.00 0.00

Powered by AerisWeather